Regional Weather Roundup
Issued by NWS

Home | Current Version | Previous Version | Graphics & Text | Print | Product List | Glossary On
Versions: 1 2 3 4 5 6 7 8 9 10 11 12 13 14 15 16 17 18 19 20 21 22 23 24 25 26 27 28 29 30 31 32 33 34 35 36 37 38 39 40 41 42 43 44 45 46 47 48 49 50
000
ASUS43 KFSD 251002
RWRSD

WEATHER ROUNDUP FOR SOUTH DAKOTA
NATIONAL WEATHER SERVICE SIOUX FALLS SD
500 AM CDT FRI MAY 25 2018

NOTE: "FAIR" INDICATES FEW OR NO CLOUDS BELOW 12,000 FEET WITH NO
SIGNIFICANT WEATHER AND/OR OBSTRUCTIONS TO VISIBILITY.


SDZ001>005-009-010-012>017-251100-
NORTHWEST AND NORTH CENTRAL SOUTH DAKOTA

CITY           SKY/WX    TMP DP  RH WIND       PRES   REMARKS
BUFFALO          N/A     59  49  69 W10       29.83S
FAITH            N/A     62  56  80 SW13      29.86F
MOBRIDGE       CLEAR     66  57  72 CALM      29.78F
$$

SDZ012>016-024>037-041>051-057-063-072>074-251100-
SOUTHWEST AND SOUTH CENTRAL SOUTH DAKOTA

CITY           SKY/WX    TMP DP  RH WIND       PRES   REMARKS
RAPID CTY ARPT CLEAR     56  52  86 NW7       29.91F
PIERRE         MOCLDY    64  59  83 SW8       29.82F
CUSTER         CLEAR     50  42  74 NW6       30.05S
ELLSWORTH AFB  MOCLDY    58  55  91 N9        29.91F
PHILIP         PTCLDY    57  56  96 W7        29.86F
PINE RIDGE     CLEAR     52  50  93 CALM      29.93F
SPEARFISH      FAIR      55  48  76 CALM      29.97S
WINNER         FAIR      68  58  70 SW10      29.86S
$$

SDZ004>011-016>023-039-040-251100-
NORTHEAST SOUTH DAKOTA

CITY           SKY/WX    TMP DP  RH WIND       PRES   REMARKS
ABERDEEN       CLEAR     56  53  90 SW5       29.77F
WATERTOWN      CLEAR     58  57  97 SW3       29.80F
BROOKINGS      CLEAR     63  59  87 CALM      29.82F
SISSETON         N/A     68  59  73 SW8       29.75S
$$

SDZ017-020-022-023-036>040-048>070-251100-
SOUTHEAST SOUTH DAKOTA

CITY           SKY/WX    TMP DP  RH WIND       PRES   REMARKS
SIOUX FALLS    PTCLDY    67  61  81 SW7       29.82R
HURON          CLEAR     62  59  90 SW5       29.80F
CHAMBERLAIN    CLEAR     62  61  97 SW5       29.84S
MITCHELL       CLEAR     63  60  90 SW5       29.81F
YANKTON        PTCLDY    65  59  81 CALM      29.83F
$$

ABBREVIATIONS USED IN REMARKS
   TC - TEMPERATURE IN CELSIUS
  WCI - WIND CHILL INDEX
   HX - HEAT INDEX
  VSB - VISIBILITY




USA.gov is the U.S. government's official web portal to all federal, state and local government web resources and services.